Temperature
17 17 18 18 21 21 22 22 22 22 22 22 21 22 24 25 26 25 21 20 20 21 21 20 19 17 16 16 16 16 16 16 15 15 15 15 14 14 15 15 15 14 14 14 14 14 14 14 14
17 17 18 20 21 21 21 22 22 22 21 20 21 22 23 24 22 20 20 20 19 20 20 20 19 18 17 16 15 15 15 15 15 15 14 14 14 15 15 15 14 14 14 14 14 14 14 14 14
16 17 19 20 20 21 22 22 22 21 20 20 22 22 23 23 21 19 20 20 19 19 19 20 19 18 17 16 15 15 15 15 15 15 14 14 15 15 15 15 14 14 14 14 14 14 14 14 14
16 17 19 20 20 21 22 22 21 21 21 21 22 23 22 20 19 19 20 20 18 18 18 20 19 18 18 17 16 15 15 15 15 15 15 15 15 16 16 16 15 15 14 14 14 14 15 14 14
16 18 19 19 20 21 21 21 19 21 22 21 22 23 23 20 20 20 20 19 18 17 17 18 19 18 18 18 17 16 15 15 15 15 15 15 15 16 16 16 15 15 15 15 15 15 15 14 14
16 18 19 19 20 20 20 19 19 21 21 21 22 23 23 20 20 20 19 19 18 18 17 18 18 18 18 18 17 17 16 15 15 15 15 15 15 16 16 16 15 15 15 15 15 15 14 14 14
17 18 19 19 20 20 20 19 20 21 21 21 21 23 22 19 20 20 19 18 18 17 17 18 18 18 17 18 18 17 16 15 15 14 15 15 15 15 16 15 15 15 15 15 15 14 14 14 14
16 19 19 19 19 20 20 19 19 20 21 20 20 22 22 18 20 20 19 19 18 18 17 17 17 17 17 17 17 17 16 15 15 14 14 15 15 15 15 15 15 15 15 14 14 14 14 14 14
14 17 18 19 19 20 19 19 19 18 19 19 19 19 19 19 19 20 19 19 18 18 17 17 17 17 16 16 17 17 16 15 15 14 14 14 14 14 15 15 15 15 14 14 14 14 14 14 14
15 17 18 19 19 19 19 19 19 19 19 19 19 18 19 19 19 18 18 18 18 18 17 17 17 17 16 16 16 16 16 16 15 14 15 14 13 13 13 14 14 14 14 14 14 14 14 13 13
15 17 18 16 16 18 18 18 18 19 20 20 19 18 17 17 17 17 17 17 17 17 17 17 17 17 17 17 16 16 16 16 15 14 15 14 13 13 13 13 14 14 14 14 14 14 13 13 13
15 16 16 16 15 16 17 18 18 18 19 18 17 17 16 16 16 16 16 16 16 17 17 18 17 17 17 17 16 16 16 16 16 16 15 15 14 14 13 13 13 13 13 14 14 13 13 13 13
14 15 14 15 15 15 16 17 17 17 17 16 16 16 17 16 16 16 16 15 16 16 17 17 17 17 17 17 17 16 16 16 16 16 16 15 15 15 14 13 13 13 13 14 14 13 13 13 13
14 14 14 15 15 15 15 16 16 17 16 16 16 16 17 17 16 16 16 16 16 16 16 17 17 17 17 17 17 17 16 16 16 16 16 15 15 15 14 14 14 13 13 13 13 13 13 13 13
13 14 14 14 15 15 15 16 16 17 16 16 16 17 16 16 16 16 16 16 16 16 16 17 17 17 17 17 17 17 17 16 16 16 16 15 15 15 15 14 14 13 13 13 13 13 13 12 12
14 14 14 15 15 14 15 16 17 16 15 16 16 16 16 16 16 16 16 16 16 17 17 17 17 17 17 17 17 17 17 17 16 16 16 15 15 15 14 14 14 14 13 13 13 13 12 12 12
13 13 14 14 14 15 15 15 16 14 14 16 16 16 16 15 15 16 16 16 16 16 17 17 17 17 17 17 17 17 17 17 17 17 16 16 15 15 15 14 14 14 13 13 13 13 12 12 12
13 14 14 14 14 14 14 15 15 15 14 15 16 16 16 15 15 15 15 16 16 16 16 17 17 17 17 17 17 17 17 17 17 17 17 17 16 16 15 14 14 14 13 13 13 12 12 12 11
14 14 13 14 13 13 13 14 15 15 15 15 15 15 15 14 13 14 15 15 16 16 16 16 17 17 17 16 16 17 17 17 18 18 18 17 17 16 15 15 14 14 14 13 13 12 12 11 11
13 13 13 12 12 13 13 14 15 14 14 13 13 13 13 13 12 12 13 14 15 15 16 16 16 16 16 16 16 16 16 16 17 17 17 17 17 16 16 15 15 15 14 13 13 12 12 11 11
12 13 13 12 11 11 12 14 14 13 12 11 11 11 11 11 11 11 12 12 13 14 14 15 15 16 16 16 16 15 15 15 15 16 16 17 17 16 16 16 15 15 14 14 13 13 12 12 11
12 12 12 12 13 13 12 15 14 13 12 12 11 11 11 10 10 10 11 11 12 13 13 14 14 15 15 15 15 15 14 14 15 16 16 17 16 16 16 15 15 14 14 14 13 13 12 12 11
11 11 11 11 12 12 12 13 15 13 13 12 12 11 11 10 10 10 10 11 12 12 13 13 14 14 14 14 15 14 14 13 14 14 14 15 15 15 15 15 14 14 14 14 13 13 12 12 12
10 10 10 10 11 11 12 13 15 14 13 13 12 11 11 10 10 10 10 10 11 12 12 13 13 13 14 14 14 14 14 14 13 13 13 13 14 14 14 14 14 14 14 14 13 13 12 12 12
9 10 10 10 10 12 10 11 14 13 12 12 12 11 10 10 10 9 9 10 10 11 11 12 12 12 13 13 13 13 13 13 13 13 13 13 13 13 13 13 13 13 13 13 13 13 13 12 12
9 10 11 12 12 12 9 11 13 12 11 10 10 10 10 10 9 9 8 8 9 9 10 10 10 11 11 12 12 12 12 13 13 13 13 13 13 12 12 12 13 12 12 12 11 12 12 12 11
8 9 10 11 10 12 12 12 12 12 11 11 11 11 11 10 9 8 7 8 8 8 8 9 9 9 10 10 11 11 11 12 12 12 12 12 12 12 12 11 11 11 11 10 10 10 10 10 10
9 9 9 9 10 13 13 13 13 12 12 12 12 11 10 9 8 7 7 7 7 7 7 8 8 8 8 9 9 10 10 10 11 11 12 12 12 12 11 11 11 10 10 10 9 9 9 9 10
8 8 9 10 10 11 13 14 13 13 13 12 12 11 10 9 7 6 6 6 6 6 7 7 7 7 7 8 8 8 9 9 10 10 11 11 11 11 11 11 10 10 9 9 9 9 9 9 9
9 9 9 9 8 9 11 13 12 12 12 11 11 10 9 7 6 5 4 5 5 6 6 6 6 7 7 7 7 7 8 8 9 9 10 10 10 10 10 10 10 9 9 9 9 9 9 9 9
Wind_Speed
4 3 3 2 4 5 7 4 2 2 2 2 4 5 5 5 4 1 3 9 12 16 18 18 16 15 14 15 16 17 17 17 16 15 14 12 11 9 8 8 8 10 12 13 14 14 14 13 12
4 3 3 4 6 9 7 5 6 1 4 6 4 5 5 3 2 3 5 10 14 16 17 17 17 16 15 15 17 18 18 17 16 15 14 12 11 9 9 9 9 12 13 14 14 14 13 12 11
4 3 5 5 9 11 5 3 5 1 4 3 2 2 3 2 3 2 6 13 15 15 15 17 18 16 15 15 16 16 17 17 16 15 14 12 11 10 10 10 11 12 13 13 13 12 11 10 9
5 5 5 10 15 14 9 3 4 1 1 2 4 1 1 3 4 4 11 14 15 14 15 16 16 15 15 14 14 15 16 17 16 15 14 12 11 10 10 10 10 11 11 11 11 10 9 8 8
6 7 11 15 18 13 10 6 3 4 4 4 5 2 2 4 4 7 13 14 14 13 13 16 15 14 13 13 13 13 15 16 17 16 14 13 12 11 11 10 9 10 10 10 10 9 8 7 6
9 9 14 18 20 15 11 9 7 9 6 4 4 2 3 4 4 7 12 13 13 13 13 15 14 13 12 12 12 12 14 16 17 16 15 13 12 12 11 10 9 9 10 10 9 9 8 7 6
13 14 20 21 20 18 13 9 11 10 9 5 3 3 3 5 5 7 10 11 11 13 13 13 14 13 12 11 11 12 13 15 17 16 15 14 13 12 11 10 9 9 9 9 9 9 8 7 6
10 11 21 22 21 20 12 8 7 10 8 3 3 4 2 4 6 8 8 9 10 11 12 12 13 13 13 13 12 11 12 14 16 16 15 14 13 13 12 10 9 8 8 9 9 9 8 8 8
8 13 21 22 18 15 11 10 7 4 5 4 3 2 3 4 8 9 8 8 9 10 11 11 11 12 11 11 12 12 12 13 14 15 15 14 12 12 11 10 9 8 8 9 10 11 10 9 8
13 19 24 14 13 11 12 12 9 7 8 7 5 1 2 6 9 10 9 10 11 11 11 10 10 11 11 10 11 12 12 13 14 14 15 13 11 9 9 11 9 8 8 10 11 11 9 6 5
13 17 15 6 7 8 11 10 8 9 8 7 6 3 3 7 8 9 9 9 10 10 11 11 11 11 11 9 10 9 10 11 13 14 15 13 11 9 9 10 10 10 10 10 10 9 6 5 4
11 10 9 9 7 7 9 8 8 9 5 6 4 2 3 6 8 10 10 9 9 10 11 12 12 11 12 11 10 10 10 10 11 13 15 13 10 10 10 9 10 10 9 8 8 6 6 6 5
11 10 7 5 6 6 5 7 5 7 5 3 2 3 3 5 8 9 10 10 10 11 12 13 13 13 12 11 10 10 11 11 13 13 15 15 11 10 10 10 10 10 9 9 8 8 7 7 6
10 8 8 6 6 5 7 8 7 9 5 6 6 7 7 7 7 8 10 11 12 13 13 13 15 15 14 12 11 11 12 13 13 14 16 17 14 12 11 10 11 11 10 10 9 9 7 6 6
10 9 7 7 7 5 5 13 14 13 10 11 11 11 10 10 9 11 11 11 12 12 13 14 15 16 17 16 15 13 13 14 13 14 17 18 17 15 13 11 10 11 12 11 9 9 7 6 5
11 12 12 10 10 8 8 14 9 7 9 12 12 12 11 11 11 12 11 11 11 12 13 14 13 16 18 17 15 13 14 14 14 15 16 19 20 18 15 11 11 13 12 11 9 8 7 7 6
12 15 19 11 9 9 12 12 6 5 6 9 10 10 10 10 11 11 10 11 11 11 12 13 14 16 17 17 15 14 13 13 14 15 15 18 21 21 18 13 13 14 12 10 10 9 9 8 7
18 16 15 15 7 10 12 12 8 8 9 11 12 12 10 10 10 9 8 9 9 10 10 11 12 14 15 14 13 12 12 13 14 14 16 19 19 21 19 14 15 15 12 11 11 11 9 7 7
14 14 12 10 5 7 10 12 12 12 12 13 13 11 10 8 6 6 6 6 6 7 8 10 11 12 12 11 13 13 14 15 14 14 18 19 19 20 19 14 15 15 14 15 15 12 11 8 8
13 13 11 6 4 4 6 11 11 8 8 7 6 5 4 2 2 3 4 4 4 5 6 7 9 10 12 12 13 13 14 13 14 13 14 19 20 20 17 18 16 16 15 17 17 14 10 8 10
11 11 10 6 5 3 4 6 4 3 3 3 3 3 4 4 5 6 6 6 6 6 6 6 7 8 10 11 11 11 12 12 12 13 14 17 20 20 19 19 17 17 17 16 18 18 16 11 11
9 6 7 6 5 3 2 3 4 5 7 7 8 7 7 6 6 6 7 8 7 7 7 7 7 8 8 8 10 14 14 16 17 15 15 16 18 18 20 19 18 17 16 17 18 19 17 15 12
6 7 6 3 3 2 4 5 4 7 9 8 7 6 6 6 6 7 8 8 8 8 7 7 7 7 7 7 9 12 15 15 14 15 17 17 16 17 18 18 17 17 17 18 18 18 19 16 15
11 8 6 3 2 5 6 7 6 8 9 9 6 4 4 6 6 7 7 8 8 9 9 8 9 8 7 7 8 10 14 15 16 17 16 15 13 13 18 17 17 18 17 19 19 19 20 18 17
6 7 4 4 5 5 4 5 5 7 6 6 4 1 4 6 7 8 9 9 10 10 10 10 10 10 10 9 9 9 11 14 16 17 16 16 14 13 15 16 17 16 17 18 17 17 18 19 18
8 6 4 5 6 4 4 6 3 5 3 4 5 4 4 6 7 7 8 9 10 10 11 11 11 11 11 11 10 10 10 10 11 14 14 15 13 14 15 16 16 16 16 15 15 14 16 15 15
7 5 1 0 1 2 5 4 3 4 5 6 4 2 4 6 7 7 8 9 10 10 11 11 11 11 11 11 11 11 10 10 11 13 13 12 12 11 13 14 14 14 14 13 12 11 13 12 12
1 5 4 4 4 4 4 5 8 12 11 7 1 4 7 8 8 8 8 9 9 9 10 10 10 11 11 11 10 9 11 10 10 10 11 11 10 9 10 11 12 12 12 11 10 8 9 10 8
5 4 3 3 2 3 4 4 6 13 9 3 3 7 8 8 8 8 8 9 9 9 10 10 11 12 12 12 11 11 10 10 9 8 8 8 7 7 7 8 8 10 10 10 10 10 11 11 10
3 5 6 4 4 3 2 3 4 6 4 3 6 8 7 7 6 7 7 8 9 10 10 11 11 12 12 12 11 10 10 9 8 7 6 5 4 3 4 5 6 8 9 10 11 12 12 12 13
Wind_Direction
270 279 264 242 235 231 237 223 232 212 218 307 293 257 250 236 233 235 78 153 147 150 150 153 156 157 156 154 149 145 143 141 138 136 132 129 126 125 125 124 112 96 100 102 99 96 95 95 95
252 237 218 221 236 231 226 218 211 198 335 319 274 244 241 233 8 63 134 151 152 151 152 157 154 157 156 152 150 149 147 145 143 139 135 131 128 126 124 121 114 98 94 94 95 94 97 98 96
219 239 210 213 230 232 225 196 194 120 335 321 316 248 277 7 34 90 137 152 154 154 155 150 154 156 155 153 153 155 154 151 147 142 137 133 130 129 124 116 107 98 94 94 94 94 97 98 96
202 189 206 225 229 230 230 139 150 205 4 354 333 257 161 43 11 97 141 154 156 157 156 152 154 154 154 155 158 161 160 157 151 145 140 137 134 131 124 114 107 103 100 99 98 98 99 99 96
211 203 212 225 232 228 228 223 217 269 313 333 329 311 121 65 53 126 150 157 159 159 157 154 153 154 157 160 163 167 165 160 154 149 145 142 137 132 128 123 118 115 112 111 109 106 102 98 93
196 209 220 225 228 226 229 226 234 255 274 299 305 283 106 74 99 139 155 161 161 160 160 156 156 156 162 168 171 174 170 163 159 155 151 147 141 138 137 135 131 127 124 121 118 112 105 96 91
206 209 224 227 231 228 227 219 234 249 254 262 285 253 132 91 98 145 159 162 165 165 166 165 168 169 170 175 179 179 175 168 163 160 157 152 147 146 146 145 142 138 134 128 123 116 107 99 94
220 219 228 228 231 232 223 213 234 240 250 240 244 242 136 86 125 144 155 163 171 174 175 174 175 177 179 181 181 180 174 170 167 165 162 157 154 155 155 159 153 147 143 137 129 120 113 107 102
201 219 223 221 227 231 207 210 212 213 217 200 221 292 11 122 143 150 157 169 179 185 186 185 182 182 183 182 176 183 178 174 172 173 167 168 176 171 169 167 157 157 153 146 135 126 121 117 111
198 219 225 224 223 218 196 206 199 188 199 200 198 164 70 152 166 173 179 182 187 192 195 194 192 190 189 185 183 191 189 187 191 188 183 191 189 184 177 162 169 163 152 144 138 135 141 153 138
203 224 222 203 199 197 189 194 194 203 206 199 188 165 132 169 186 194 199 198 198 199 200 203 201 199 198 193 194 194 195 194 200 197 191 193 192 190 191 180 180 179 173 168 151 165 173 173 154
204 212 208 197 175 176 181 182 193 211 190 137 125 109 164 185 199 207 212 212 208 207 208 209 209 208 208 207 203 203 201 199 201 201 200 197 196 199 199 199 194 192 194 191 192 197 180 177 173
197 191 185 170 167 179 183 200 213 220 198 185 224 231 222 211 212 215 221 222 219 217 215 213 213 213 211 213 216 214 213 208 206 205 206 206 202 203 205 206 202 204 201 198 203 203 191 187 179
187 177 181 186 182 188 215 234 240 239 230 235 240 245 244 239 232 228 226 228 227 224 221 216 214 215 214 213 215 219 220 217 216 211 209 209 209 207 207 208 206 206 204 205 205 207 197 193 187
180 186 198 208 205 200 215 241 237 247 250 252 251 252 255 255 252 248 244 241 239 236 231 223 219 216 217 217 218 220 222 221 221 218 215 212 213 211 210 210 207 207 204 201 204 202 199 193 188
183 203 217 214 212 205 218 246 225 231 242 250 253 253 255 258 258 259 258 254 252 247 240 234 225 222 220 220 220 220 221 222 223 222 219 216 215 214 213 212 210 206 200 197 195 193 193 191 194
190 210 214 207 207 205 219 249 231 211 236 251 253 254 257 263 264 265 266 262 258 254 248 242 233 230 226 224 223 222 223 223 225 224 223 220 217 215 214 214 210 204 201 200 196 197 198 197 193
192 198 202 205 186 202 221 236 236 240 252 259 262 263 263 266 273 284 286 279 271 264 258 251 243 237 235 231 227 226 226 227 225 224 224 222 220 217 216 215 211 204 203 201 198 196 197 197 182
185 188 189 191 167 204 227 243 250 254 254 258 262 266 269 274 291 305 307 300 285 273 264 257 251 244 237 232 226 224 226 228 228 226 225 224 222 219 216 215 211 205 207 205 201 193 189 186 171
178 184 179 158 158 218 241 257 260 262 259 265 268 267 272 295 14 25 14 4 338 310 291 275 261 254 244 236 233 231 231 232 231 229 228 225 223 220 217 216 212 206 208 206 201 191 191 183 184
179 188 178 159 151 160 274 253 188 127 121 103 97 103 92 70 50 34 27 23 13 356 331 307 290 274 260 251 244 239 237 236 233 230 228 226 223 221 218 219 217 210 208 206 202 196 194 191 193
172 170 161 158 190 190 265 246 147 126 119 105 103 96 81 59 41 31 23 18 12 359 343 326 311 295 281 264 247 238 234 233 233 232 232 229 224 222 220 221 220 215 212 211 206 203 203 196 193
142 123 128 145 191 230 216 238 164 152 140 124 112 92 65 39 23 17 11 3 360 355 346 335 325 315 302 281 260 251 245 244 244 240 238 235 228 222 219 219 218 217 214 215 210 205 206 203 200
124 105 89 97 208 237 211 217 189 171 156 143 132 97 45 20 10 6 4 358 356 353 348 340 332 325 318 301 280 258 253 251 249 245 243 240 234 226 221 219 218 218 217 217 213 208 209 209 207
149 153 159 185 208 224 154 219 218 152 157 163 157 84 8 0 359 358 358 355 352 348 345 338 333 326 324 314 298 281 267 259 254 251 247 244 240 233 225 218 220 220 221 220 216 211 211 212 212
174 194 206 202 200 174 177 225 159 157 199 222 235 269 323 348 356 354 353 349 346 343 341 338 333 326 323 318 309 297 282 269 262 256 252 249 245 240 231 222 221 221 221 221 218 215 213 213 213
160 190 300 52 105 224 200 217 240 191 188 193 207 278 340 350 352 352 351 349 345 343 341 337 332 326 324 319 312 303 293 280 272 268 262 256 251 248 238 225 220 218 217 215 212 215 213 210 209
125 145 159 194 211 219 195 202 176 168 168 175 206 345 346 349 351 352 352 350 348 345 342 341 338 331 326 322 316 309 304 297 287 278 269 261 255 247 239 227 219 213 207 202 200 201 197 192 186
150 163 187 184 241 241 201 159 151 160 161 170 338 342 341 345 348 350 350 350 350 351 351 350 348 343 339 333 325 318 314 310 302 289 280 271 259 245 232 223 211 203 196 190 187 185 179 177 169
222 196 184 198 200 217 256 147 129 178 195 264 316 334 340 346 349 351 353 355 358 358 357 354 350 347 342 336 332 329 324 321 316 308 301 290 272 250 229 208 194 188 183 180 179 177 173 171 166
Height
1530 1531 1532 1534 1532 1529 1527 1524 1524 1525 1524 1526 1526 1525 1522 1519 1520 1524 1523 1521 1523 1526 1529 1531 1533 1535 1537 1539 1541 1543 1545 1546 1547 1548 1549 1549 1549 1549 1549 1549 1550 1551 1551 1552 1552 1552 1552 1552 1551
1529 1531 1533 1533 1529 1530 1526 1522 1524 1525 1526 1526 1526 1525 1523 1521 1522 1522 1520 1520 1523 1527 1529 1531 1533 1535 1538 1540 1542 1543 1545 1547 1548 1549 1549 1549 1549 1549 1549 1550 1551 1552 1552 1553 1554 1554 1554 1553 1553
1528 1530 1532 1529 1527 1526 1523 1522 1523 1526 1527 1526 1524 1524 1523 1522 1523 1522 1521 1521 1524 1527 1530 1532 1534 1536 1538 1540 1542 1544 1545 1547 1548 1549 1549 1550 1550 1550 1550 1550 1551 1552 1553 1554 1555 1555 1555 1555 1555
1527 1530 1530 1526 1524 1521 1520 1522 1525 1526 1526 1525 1524 1522 1523 1523 1523 1522 1522 1523 1526 1529 1531 1532 1534 1536 1538 1540 1542 1544 1545 1547 1548 1549 1550 1550 1550 1551 1551 1551 1552 1553 1554 1555 1556 1556 1556 1556 1557
1526 1526 1524 1522 1520 1519 1521 1524 1527 1526 1525 1525 1524 1522 1522 1523 1522 1522 1523 1525 1528 1530 1532 1533 1535 1537 1539 1541 1543 1544 1545 1547 1548 1549 1550 1550 1551 1551 1552 1552 1553 1554 1555 1556 1557 1557 1557 1558 1558
1524 1521 1519 1519 1517 1518 1522 1524 1526 1525 1525 1525 1524 1522 1522 1523 1523 1524 1525 1527 1529 1531 1532 1534 1535 1537 1539 1541 1543 1544 1546 1547 1548 1549 1550 1551 1551 1552 1553 1553 1554 1555 1556 1557 1557 1558 1558 1559 1559
1518 1515 1512 1512 1513 1515 1519 1523 1523 1523 1523 1524 1524 1522 1522 1523 1523 1524 1525 1527 1529 1531 1533 1534 1536 1537 1539 1541 1543 1545 1546 1547 1548 1549 1550 1551 1552 1553 1554 1554 1555 1556 1557 1557 1558 1558 1559 1559 1559
1514 1512 1509 1508 1510 1512 1516 1520 1521 1522 1521 1523 1524 1522 1522 1524 1523 1524 1525 1527 1529 1530 1533 1534 1536 1538 1539 1541 1543 1544 1546 1547 1548 1549 1550 1551 1552 1553 1554 1555 1556 1556 1557 1558 1558 1559 1559 1559 1559
1513 1511 1504 1504 1508 1509 1515 1517 1519 1520 1521 1522 1522 1522 1522 1522 1523 1524 1525 1526 1528 1529 1531 1534 1535 1537 1539 1541 1542 1544 1545 1547 1548 1549 1550 1551 1552 1554 1554 1555 1556 1557 1557 1558 1558 1559 1559 1559 1559
1510 1504 1499 1502 1506 1508 1513 1514 1516 1518 1519 1520 1521 1521 1520 1521 1522 1523 1524 1525 1526 1528 1530 1532 1534 1536 1538 1539 1541 1543 1544 1546 1547 1549 1549 1551 1553 1554 1554 1554 1555 1556 1557 1557 1558 1559 1559 1559 1559
1505 1501 1501 1507 1509 1510 1511 1513 1515 1515 1516 1517 1519 1520 1520 1520 1521 1522 1523 1525 1526 1527 1529 1530 1532 1534 1536 1538 1540 1541 1543 1544 1546 1547 1548 1550 1551 1552 1553 1554 1554 1555 1556 1557 1557 1558 1558 1558 1558
1504 1504 1505 1507 1510 1511 1511 1512 1514 1514 1515 1517 1518 1519 1520 1520 1521 1521 1522 1524 1525 1526 1527 1529 1530 1532 1534 1536 1538 1539 1541 1542 1543 1544 1546 1547 1548 1550 1551 1552 1553 1554 1555 1555 1556 1556 1557 1557 1557
1503 1504 1506 1508 1510 1511 1512 1512 1513 1514 1516 1516 1517 1518 1519 1520 1520 1521 1522 1523 1524 1524 1525 1527 1528 1530 1532 1533 1535 1537 1538 1539 1541 1542 1543 1544 1545 1547 1548 1550 1551 1552 1553 1553 1554 1555 1555 1555 1555
1502 1504 1506 1508 1509 1511 1512 1512 1513 1511 1514 1515 1516 1517 1518 1518 1519 1519 1520 1521 1522 1522 1524 1525 1526 1528 1529 1530 1532 1533 1535 1536 1537 1538 1539 1540 1542 1543 1544 1546 1547 1548 1549 1551 1552 1552 1552 1553 1553
1502 1504 1506 1506 1508 1509 1512 1510 1509 1510 1512 1512 1513 1514 1515 1515 1516 1516 1517 1518 1519 1520 1521 1522 1523 1524 1526 1527 1528 1529 1531 1532 1533 1534 1535 1536 1538 1539 1540 1542 1543 1544 1545 1547 1548 1549 1549 1550 1550
1501 1503 1504 1502 1505 1507 1512 1504 1504 1507 1509 1509 1509 1510 1511 1511 1512 1512 1513 1514 1515 1516 1517 1518 1519 1520 1521 1522 1523 1525 1526 1527 1528 1530 1531 1532 1533 1534 1536 1537 1538 1540 1541 1542 1544 1545 1546 1547 1547
1498 1497 1497 1500 1503 1504 1505 1502 1503 1505 1506 1506 1506 1507 1507 1507 1508 1508 1508 1509 1510 1511 1512 1513 1514 1515 1517 1518 1519 1520 1521 1522 1523 1524 1525 1527 1528 1529 1530 1531 1533 1534 1536 1537 1539 1540 1542 1543 1544
1490 1490 1494 1497 1500 1502 1502 1500 1502 1503 1504 1503 1503 1503 1504 1504 1504 1504 1503 1503 1504 1505 1506 1507 1508 1510 1511 1512 1513 1514 1514 1516 1517 1518 1519 1520 1522 1523 1524 1525 1527 1528 1530 1531 1533 1535 1537 1538 1540
1485 1489 1492 1495 1501 1501 1500 1499 1498 1499 1500 1499 1499 1499 1500 1500 1500 1498 1498 1498 1498 1499 1500 1501 1502 1504 1505 1506 1506 1507 1507 1509 1510 1511 1512 1513 1515 1516 1518 1519 1520 1522 1523 1525 1528 1529 1531 1533 1535
1487 1489 1492 1498 1501 1500 1499 1497 1494 1495 1496 1497 1497 1497 1497 1497 1497 1495 1494 1493 1493 1494 1494 1495 1496 1497 1498 1499 1500 1500 1501 1502 1503 1504 1505 1506 1508 1509 1510 1512 1513 1514 1516 1518 1520 1522 1524 1526 1529
1488 1488 1491 1495 1501 1503 1500 1490 1491 1495 1496 1496 1496 1496 1496 1495 1495 1494 1492 1491 1490 1489 1489 1489 1490 1490 1491 1492 1493 1493 1493 1494 1495 1495 1496 1498 1500 1501 1502 1504 1506 1507 1509 1510 1512 1514 1517 1519 1522
1489 1491 1493 1496 1495 1494 1498 1487 1487 1492 1494 1495 1496 1496 1496 1495 1494 1492 1491 1490 1488 1487 1486 1485 1485 1485 1485 1485 1485 1485 1485 1485 1486 1488 1489 1490 1491 1492 1494 1496 1498 1499 1501 1503 1504 1507 1509 1512 1514
1490 1494 1496 1497 1495 1496 1496 1491 1482 1491 1492 1494 1495 1496 1495 1494 1493 1491 1489 1487 1486 1485 1483 1482 1481 1480 1480 1479 1479 1479 1479 1479 1481 1482 1482 1483 1483 1484 1485 1487 1489 1491 1493 1495 1497 1499 1501 1504 1506
1494 1498 1500 1500 1498 1499 1493 1490 1481 1485 1488 1492 1495 1495 1495 1494 1492 1490 1488 1486 1484 1482 1480 1479 1477 1476 1475 1474 1473 1473 1472 1473 1474 1474 1474 1475 1476 1476 1476 1478 1480 1481 1483 1486 1488 1490 1493 1495 1498
1494 1496 1499 1499 1500 1489 1498 1494 1481 1485 1489 1492 1493 1494 1494 1492 1490 1488 1486 1483 1481 1479 1477 1475 1473 1471 1470 1469 1468 1467 1466 1466 1466 1467 1467 1468 1468 1468 1468 1470 1471 1472 1474 1477 1479 1481 1483 1486 1489
1493 1491 1488 1485 1483 1484 1500 1489 1481 1487 1490 1492 1493 1493 1492 1491 1489 1486 1483 1480 1477 1475 1472 1470 1468 1466 1465 1463 1462 1461 1460 1459 1458 1459 1459 1460 1460 1461 1462 1463 1464 1465 1467 1469 1471 1473 1475 1477 1480
1492 1491 1492 1487 1490 1485 1480 1484 1484 1486 1488 1490 1491 1491 1490 1488 1486 1483 1480 1477 1474 1471 1468 1466 1463 1461 1459 1457 1456 1454 1453 1452 1452 1452 1452 1452 1453 1454 1455 1455 1456 1458 1459 1461 1463 1465 1467 1469 1472
1491 1491 1494 1493 1487 1475 1474 1476 1473 1482 1484 1487 1488 1487 1486 1485 1482 1480 1477 1474 1471 1468 1465 1462 1459 1457 1454 1452 1450 1448 1447 1446 1445 1445 1445 1445 1446 1447 1448 1448 1450 1451 1452 1454 1456 1457 1460 1462 1464
1493 1494 1491 1488 1488 1480 1471 1471 1471 1475 1480 1483 1484 1484 1483 1481 1479 1476 1474 1471 1468 1465 1462 1459 1456 1453 1450 1448 1446 1444 1442 1441 1440 1439 1439 1439 1440 1440 1441 1442 1443 1444 1446 1447 1449 1451 1453 1455 1457
1489 1488 1489 1488 1492 1490 1480 1475 1476 1478 1480 1482 1482 1481 1480 1478 1476 1474 1471 1468 1465 1462 1459 1456 1453 1450 1447 1445 1442 1440 1438 1437 1436 1435 1435 1434 1435 1435 1436 1437 1437 1438 1440 1441 1443 1444 1446 1449 1451